R2176 YSSY-YSSY

Flight info

Callsign R2176
Flight time 0h 10m
Altitude 1500
Route
Aircraft NG5/L-G/C

Departure

Time 2026-05-05 07:36
Airport Sydney Kingsford Smith International Airport (YSSY)

Arrival

Time 2026-05-05 07:46
Airport Sydney Kingsford Smith International Airport (YSSY)
Time Latitude Longitude Altitude Speed Heading
2026-05-05 07:21 -33.92765 151.17495 25 ft 0 kts 77°
2026-05-05 07:27 -33.92772 151.17471 25 ft 16 kts 253°
2026-05-05 07:28 -33.92833 151.17377 16 ft 16 kts 165°
2026-05-05 07:28 -33.92966 151.17416 18 ft 21 kts 135°
2026-05-05 07:28 -33.93067 151.17528 25 ft 14 kts 205°
2026-05-05 07:28 -33.93146 151.17533 25 ft 18 kts 170°
2026-05-05 07:29 -33.93311 151.17573 24 ft 25 kts 168°
2026-05-05 07:29 -33.93414 151.17595 24 ft 22 kts 185°
2026-05-05 07:29 -33.93583 151.17609 22 ft 26 kts 172°
2026-05-05 07:29 -33.93723 151.17681 18 ft 18 kts 166°
2026-05-05 07:30 -33.93798 151.17701 14 ft 0 kts 170°
2026-05-05 07:30 -33.93841 151.17722 14 ft 18 kts 137°
2026-05-05 07:30 -33.93928 151.17786 16 ft 0 kts 169°
2026-05-05 07:31 -33.93945 151.17791 17 ft 10 kts 167°
2026-05-05 07:31 -33.94088 151.17827 17 ft 31 kts 166°
2026-05-05 07:31 -33.94261 151.17873 19 ft 24 kts 168°
2026-05-05 07:31 -33.94432 151.17914 19 ft 19 kts 180°
2026-05-05 07:32 -33.94513 151.17882 18 ft 11 kts 180°
2026-05-05 07:32 -33.94581 151.17898 19 ft 8 kts 168°
2026-05-05 07:32 -33.94662 151.17920 17 ft 17 kts 168°
2026-05-05 07:32 -33.94825 151.17961 15 ft 23 kts 167°
2026-05-05 07:33 -33.94946 151.17993 17 ft 18 kts 169°
2026-05-05 07:33 -33.95076 151.18029 21 ft 16 kts 149°
2026-05-05 07:33 -33.95100 151.18121 20 ft 11 kts 80°
2026-05-05 07:33 -33.95080 151.18238 19 ft 18 kts 78°
2026-05-05 07:34 -33.95057 151.18368 20 ft 12 kts 77°
2026-05-05 07:34 -33.95045 151.18426 21 ft 0 kts 79°
2026-05-05 07:34 -33.95044 151.18433 21 ft 2 kts 77°
2026-05-05 07:34 -33.95030 151.18513 21 ft 17 kts 80°
2026-05-05 07:35 -33.95000 151.18686 19 ft 22 kts 82°
2026-05-05 07:35 -33.95004 151.18826 18 ft 14 kts 130°
2026-05-05 07:35 -33.95193 151.18896 16 ft 54 kts 167°
2026-05-05 07:35 -33.95634 151.19004 88 ft 70 kts 169°
2026-05-05 07:36 -33.96125 151.19113 177 ft 79 kts 165°
2026-05-05 07:36 -33.96681 151.19289 333 ft 83 kts 167°
2026-05-05 07:36 -33.97256 151.19391 528 ft 82 kts 172°
2026-05-05 07:36 -33.97816 151.19486 666 ft 80 kts 170°
2026-05-05 07:37 -33.98368 151.19613 870 ft 80 kts 172°
2026-05-05 07:37 -33.98820 151.19976 970 ft 94 kts 123°
2026-05-05 07:37 -33.98815 151.20765 1138 ft 94 kts 84°
2026-05-05 07:37 -33.98664 151.21578 1085 ft 108 kts 84°
2026-05-05 07:38 -33.98475 151.22473 1049 ft 114 kts 81°
2026-05-05 07:38 -33.98261 151.23403 1024 ft 116 kts 80°
2026-05-05 07:38 -33.97886 151.24248 1003 ft 122 kts 38°
2026-05-05 07:38 -33.97070 151.24389 999 ft 122 kts 356°
2026-05-05 07:39 -33.96219 151.24295 1005 ft 123 kts 352°
2026-05-05 07:39 -33.95367 151.24198 1005 ft 122 kts 353°
2026-05-05 07:39 -33.94537 151.24111 1006 ft 121 kts 352°
2026-05-05 07:39 -33.93693 151.24025 1002 ft 120 kts 354°
2026-05-05 07:40 -33.92863 151.23938 1006 ft 120 kts 352°
2026-05-05 07:40 -33.92021 151.23848 1031 ft 124 kts 352°
2026-05-05 07:40 -33.91159 151.23756 1012 ft 124 kts 353°
2026-05-05 07:40 -33.90301 151.23658 1008 ft 126 kts 356°
2026-05-05 07:41 -33.89429 151.23531 998 ft 123 kts 352°
2026-05-05 07:41 -33.88642 151.23230 994 ft 119 kts 313°
2026-05-05 07:41 -33.88395 151.22357 998 ft 109 kts 266°
2026-05-05 07:41 -33.88377 151.21419 892 ft 112 kts 264°
2026-05-05 07:42 -33.88363 151.20502 730 ft 106 kts 264°
2026-05-05 07:42 -33.88374 151.19666 630 ft 95 kts 260°
2026-05-05 07:42 -33.88406 151.18909 605 ft 85 kts 263°
2026-05-05 07:42 -33.88491 151.18285 509 ft 65 kts 229°
2026-05-05 07:43 -33.88862 151.18125 452 ft 59 kts 181°
2026-05-05 07:43 -33.89260 151.18011 415 ft 62 kts 187°
2026-05-05 07:43 -33.89723 151.17948 464 ft 72 kts 181°
2026-05-05 07:43 -33.90262 151.17920 431 ft 79 kts 176°
2026-05-05 07:44 -33.90716 151.17938 425 ft 62 kts 179°
2026-05-05 07:44 -33.91142 151.17973 408 ft 60 kts 173°
2026-05-05 07:44 -33.91566 151.18014 388 ft 63 kts 173°
2026-05-05 07:44 -33.91984 151.18061 406 ft 61 kts 171°
2026-05-05 07:45 -33.92413 151.18181 360 ft 63 kts 166°
2026-05-05 07:45 -33.92848 151.18291 402 ft 68 kts 167°
2026-05-05 07:45 -33.93320 151.18407 345 ft 69 kts 165°
2026-05-05 07:45 -33.93783 151.18528 260 ft 66 kts 165°
2026-05-05 07:46 -33.94212 151.18633 173 ft 62 kts 165°
2026-05-05 07:46 -33.94643 151.18745 93 ft 64 kts 164°
2026-05-05 07:46 -33.95025 151.18847 41 ft 51 kts 164°
2026-05-05 07:46 -33.95355 151.18923 15 ft 43 kts 164°
2026-05-05 07:47 -33.95544 151.18985 18 ft 18 kts 169°